Home   Weather   Amravati   Past weeks

Flag for India Past Weather in Amravati, Maharashtra, India — Yesterday and Last 2 Weeks

Now
54 °F

Haze.


Feels Like: 54 °F
Forecast: 53 / 86 °F
Wind: No wind

Location: Nagpur Sonegaon

Current Time: Dec 10, 2016 at 12:53:05 am

Latest Report: Dec 10, 2016 at 12:30 am


Visibility: 1 mi

Pressure: 29.95 "Hg

Humidity: 82%

Dew Point: 48 °F

Location of AmravatiLocation

Past Weather in Amravati — Graph

°F

Amravati Temperature Yesterday

Maximum temperature yesterday: 84 °F (at 2:30 pm)
Minimum temperature yesterday: 50 °F (at 5:30 am)
Average temperature yesterday: 65 °F

High & Low Weather Summary for the Past Weeks

 TemperatureHumidityPressure
High90 °F (Nov 27, 1:30 pm)100% (Dec 9, 1:30 am)30.15 "Hg (Dec 9, 1:30 am)
Low50 °F (Dec 9, 5:30 am)17% (Dec 5, 12:30 pm)29.86 "Hg (Dec 9, 2:30 pm)
Average70 °F61%30.00 "Hg
* Reported Nov 24 10:30 pm — Dec 9 11:00 pm, Amravati, Weather by CustomWeather, © 2016

Note: Actual official high and low records may vary slightly from our data, if they occured in-between our weather recording intervals... More about our weather records

Advertising

Amravati Weather History for the Previous 24 Hours

Scroll right to see more
 ConditionsComfort  
Time TempWeatherWind HumidityBarometerVisibility
11:00 pm
Fri, Dec 9
57 °FHaze.2 mph77%29.95 "Hg1 mi
10:00 pm59 °FHaze.2 mph82%29.95 "Hg1 mi
9:30 pm61 °FHaze.No wind77%29.95 "Hg1 mi
8:30 pm63 °FHaze.No wind73%29.95 "Hg1 mi
8:00 pm66 °FHaze.No wind64%29.95 "Hg2 mi
7:30 pm66 °FHaze.No wind64%29.92 "Hg2 mi
7:00 pm66 °FHaze.No wind64%29.92 "Hg2 mi
6:30 pm68 °FHaze.No wind53%29.89 "Hg2 mi
6:00 pm70 °FHaze.No wind53%29.89 "Hg2 mi
4:30 pm77 °FHaze.No wind30%29.86 "Hg2 mi
3:30 pm82 °FHaze.3 mph21%29.86 "Hg2 mi
3:00 pm82 °FHaze.2 mph21%29.86 "Hg2 mi
2:30 pm84 °FHaze.3 mph20%29.86 "Hg2 mi
2:00 pm82 °FHaze.2 mph30%29.89 "Hg2 mi
1:00 pm82 °FHaze.3 mph26%29.92 "Hg2 mi
12:30 pm79 °FHaze.2 mph26%29.95 "Hg2 mi
12:00 pm77 °FHaze.6 mph28%29.95 "Hg2 mi
11:30 am79 °FHaze.2 mph34%29.98 "Hg2 mi
11:00 am73 °FHaze.5 mph36%29.98 "Hg2 mi
10:30 am72 °FHaze.6 mph38%30.01 "Hg2 mi
10:00 am70 °FHaze.6 mph43%30.01 "Hg2 mi
9:30 am68 °FHaze.5 mph46%30.01 "Hg2 mi
9:00 am66 °FHaze.5 mph49%30.01 "Hg2 mi
8:30 am61 °FHaze.No wind63%30.01 "Hg2 mi
8:00 am54 °FHaze.No wind82%30.01 "Hg2 mi
7:30 am50 °FHaze.3 mph88%29.98 "Hg1 mi
7:00 am50 °FHaze.5 mph88%29.98 "Hg1 mi
6:30 am50 °FHaze.6 mph88%29.95 "Hg1 mi
6:00 am50 °FHaze.5 mph82%29.95 "Hg1 mi
5:30 am50 °FHaze.2 mph82%29.95 "Hg1 mi
5:00 am52 °FHaze.No wind82%29.95 "Hg1 mi
4:30 am54 °FHaze.No wind77%29.95 "Hg1 mi
4:00 am54 °FHaze.2 mph77%29.92 "Hg1 mi
3:30 am55 °FHaze.2 mph72%29.92 "Hg1 mi
3:00 am55 °FHaze.3 mph72%29.92 "Hg1 mi
1:30 am59 °FHaze.No wind100%29.95 "Hg1 mi
1:00 am59 °FHaze.No wind63%29.95 "Hg1 mi
12:30 am61 °FHaze.No wind63%29.98 "Hg1 mi
12:00 am61 °FHaze.No wind59%29.98 "Hg1 mi
Weather by CustomWeather, © 2016

See weather overviewHow to use our weather pages